Weather History for Tallahassee, FL

Change the Weather History Date:

Tuesday, December 11, 2012

  Actual Average Record
Temperature  
Mean Temperature 61 °F 54 °F  
Max Temperature 69 °F 66 °F 81 °F (1931)
Min Temperature 53 °F 42 °F 21 °F (1968)
Degree Days  
Heating Degree Days 4    
Month to date heating degree days 16  
Since 1 July heating degree days 274  
Cooling Degree Days 0    
Month to date cooling degree days 12  
Year to date cooling degree days 2970  
Growing Degree Days 11 (Base 50)    
Moisture  
Dew Point 58 °F    
Average Humidity 83    
Maximum Humidity 93    
Minimum Humidity 72    
Precipitation  
Precipitation 0.05 in 0.14 in 2.00 in (1983)
Month to date precipitation 0.05 1.42  
Year to date precipitation 56.09 56.75  
Sea Level Pressure  
Sea Level Pressure 29.96 in    
Wind  
Wind Speed 6 mph (NNW)    
Max Wind Speed 12 mph    
Max Gust Speed 14 mph    
Visibility 9 miles    
Events Rain    
T = Trace of Precipitation, MM = Missing Value Source: NWS Daily Summary

Daily Weather History Graph

Daily Weather History Graph

Search for Another Location

Airport:

Trip Planner

Search our weather history database for the weather conditions in past years. The results will help you decide how hot, cold, wet, or windy it might be!

Date:

Astronomy

Dec. 11, 2012 Rise Set
Actual Time 7:24 AM EST 5:37 PM EST
Civil Twilight 6:57 AM EST 6:03 PM EST
Nautical Twilight 6:28 AM EST 6:33 PM EST
Astronomical Twilight 5:58 AM EST 7:03 PM EST
Moon 5:22 AM EST (12/11) 4:12 PM EST (12/11)
Length of Visible Light 11h 05m
Length of Day
10h 13m
Waning Crescent, 4% of the Moon is Illuminated
Dec 11
Waning Crescent
Dec 13
New
Dec 20
First Quarter
Dec 28
Full
Jan 4
Last Quarter

Hourly Weather History & Observations

Time (EST) Temp. Dew Point Humidity Pressure Visibility Wind Dir Wind Speed Gust Speed Precip Events Conditions
12:21 AM 69.8 °F 66.2 °F 88% 29.85 in 8.0 mi West 5.8 mph - N/A   Partly Cloudy
12:34 AM 69.8 °F 66.2 °F 88% 29.85 in 8.0 mi WSW 5.8 mph - N/A   Mostly Cloudy
12:51 AM 69.8 °F 66.2 °F 88% 29.85 in 8.0 mi WSW 5.8 mph - N/A   Scattered Clouds
12:53 AM 69.1 °F 66.9 °F 93% 29.85 in 8.0 mi WSW 5.8 mph - N/A   Scattered Clouds
1:53 AM 68.0 °F 66.0 °F 93% 29.84 in 8.0 mi Calm Calm - N/A   Mostly Cloudy
2:53 AM 68.0 °F 64.9 °F 90% 29.84 in 10.0 mi West 4.6 mph - N/A   Mostly Cloudy
3:01 AM 68.0 °F 64.4 °F 88% 29.85 in 9.0 mi WSW 3.5 mph - N/A   Mostly Cloudy
3:09 AM 68.0 °F 64.4 °F 88% 29.85 in 9.0 mi West 3.5 mph - N/A   Mostly Cloudy
3:24 AM 68.0 °F 64.4 °F 88% 29.85 in 10.0 mi West 3.5 mph - N/A   Overcast
3:31 AM 68.0 °F 64.4 °F 88% 29.86 in 10.0 mi West 4.6 mph - N/A   Overcast
3:41 AM 68.0 °F 64.4 °F 88% 29.86 in 10.0 mi West 4.6 mph - N/A   Overcast
3:53 AM 68.0 °F 64.9 °F 90% 29.86 in 10.0 mi West 4.6 mph - N/A   Overcast
4:53 AM 66.9 °F 64.0 °F 90% 29.87 in 10.0 mi WNW 3.5 mph - N/A   Overcast
5:53 AM 66.9 °F 63.0 °F 87% 29.88 in 10.0 mi NW 3.5 mph - N/A   Mostly Cloudy
6:03 AM 66.2 °F 62.6 °F 88% 29.89 in 10.0 mi NNW 4.6 mph - N/A   Mostly Cloudy
6:53 AM 66.0 °F 62.1 °F 87% 29.91 in 10.0 mi NNW 8.1 mph - N/A   Overcast
7:53 AM 62.1 °F 59.0 °F 90% 29.94 in 10.0 mi NW 8.1 mph - N/A   Overcast
8:53 AM 61.0 °F 57.0 °F 87% 29.97 in 10.0 mi North 8.1 mph - N/A   Overcast
9:53 AM 61.0 °F 55.9 °F 83% 29.99 in 10.0 mi NNW 6.9 mph - N/A   Overcast
10:32 AM 60.8 °F 55.4 °F 82% 30.00 in 10.0 mi North 3.5 mph - N/A   Overcast
10:53 AM 62.1 °F 54.0 °F 75% 30.00 in 10.0 mi NNW 5.8 mph - N/A   Overcast
11:53 AM 60.8 °F 53.6 °F 77% 30.01 in 10.0 mi North 5.8 mph - N/A   Overcast
12:53 PM 60.1 °F 54.0 °F 80% 29.99 in 10.0 mi North 5.8 mph - 0.00 in Rain Light Rain
1:53 PM 60.1 °F 55.0 °F 83% 29.99 in 6.0 mi North 6.9 mph - 0.01 in   Overcast
2:10 PM 59.0 °F 55.4 °F 88% 29.99 in 6.0 mi North 6.9 mph - N/A   Overcast
2:53 PM 57.9 °F 55.0 °F 90% 30.00 in 7.0 mi North 4.6 mph - 0.01 in Rain Light Rain
3:07 PM 57.2 °F 55.4 °F 94% 30.00 in 7.0 mi NNE 4.6 mph - 0.00 in Rain Light Rain
3:53 PM 57.9 °F 55.0 °F 90% 30.01 in 6.0 mi NW 5.8 mph - 0.01 in Rain Light Rain
4:46 PM 57.2 °F 55.4 °F 94% 30.01 in 6.0 mi North 6.9 mph - 0.01 in   Overcast
4:53 PM 57.9 °F 54.0 °F 87% 30.00 in 6.0 mi North 5.8 mph - 0.01 in   Overcast
5:53 PM 57.0 °F 54.0 °F 89% 30.00 in 10.0 mi NNE 3.5 mph - N/A   Overcast
6:11 PM 57.2 °F 53.6 °F 88% 30.01 in 10.0 mi NNW 5.8 mph - N/A   Overcast
6:53 PM 55.9 °F 53.1 °F 90% 30.02 in 10.0 mi North 5.8 mph - N/A   Overcast
7:32 PM 55.4 °F 51.8 °F 88% 30.02 in 10.0 mi NNE 6.9 mph - N/A   Overcast
7:53 PM 55.9 °F 51.1 °F 84% 30.04 in 10.0 mi North 6.9 mph - N/A   Overcast
8:31 PM 55.4 °F 51.8 °F 88% 30.04 in 10.0 mi North 6.9 mph - N/A   Mostly Cloudy
8:53 PM 55.0 °F 51.1 °F 86% 30.05 in 10.0 mi North 5.8 mph - N/A   Mostly Cloudy
9:53 PM 54.0 °F 50.0 °F 86% 30.09 in 10.0 mi NNW 9.2 mph - N/A   Overcast
10:23 PM 53.6 °F 48.2 °F 82% 30.09 in 10.0 mi North 5.8 mph - N/A   Mostly Cloudy
10:53 PM 54.0 °F 48.9 °F 83% 30.11 in 10.0 mi North 6.9 mph - N/A   Overcast
11:33 PM 53.6 °F 50.0 °F 88% 30.13 in 10.0 mi NNW 8.1 mph - 0.01 in Rain Light Rain
11:53 PM 53.1 °F 48.9 °F 86% 30.12 in 10.0 mi North 5.8 mph - 0.01 in Rain Light Rain